Location: Newark
(33.6333°S, 78.8500°W)
Time: 15:40:12
(UTC+00:00)

Tiros 1 - Pass Details

Date: 22 October 2019
Orbit: 630 x 664 km, 48.4° (Epoch: 17 November)

Event Time Altitude Azimuth Distance (km) Brightness Sun altitude
Rises 21:19:22 0° 230° (SW) 2,946 11.2 27.0°
Reaches altitude 10° 21:22:52 10° 203° (SSW) 2,033 10.0 26.3°
Maximum altitude 21:25:13 14° 173° (S) 1,799 9.4 25.8°
Drops below altitude 10° 21:27:34 10° 142° (SE) 2,028 9.4 25.3°
Sets 21:31:03 0° 115° (ESE) 2,935 10.0 24.6°
